Theta_e
316 315 315 317 316 316 318 318 317 318 316 315 315 319 321 321 319 317 314 312 310 309 309 310 312 314 313 312 311 311 309 309 309 308 309 310 310 311 311 313 314 315 315 315 313 312 311 310 311 312 314 314 315 317 318 319 319 321 330 330 323 325 324 320 321 317 318 322 314 310 314 315 316 314 313 315 315 315 315 315 316 316 317 316 317 319 316 314
317 315 315 315 315 316 316 316 315 315 314 313 313 315 315 313 311 309 308 307 308 309 311 313 313 313 312 311 310 309 309 308 308 308 310 310 310 312 311 314 315 315 314 314 312 311 311 310 311 313 315 315 316 318 318 319 317 321 329 328 330 333 321 315 317 312 314 317 313 311 313 314 315 314 314 316 315 314 315 315 314 316 316 316 316 318 317 315
317 315 314 314 314 313 312 313 313 312 311 310 310 310 309 308 307 307 307 308 311 312 313 313 313 312 311 310 309 309 308 308 308 309 310 310 311 312 312 314 316 314 313 312 310 311 311 310 312 314 315 316 316 317 317 318 317 317 321 327 336 330 316 312 313 313 314 314 312 312 312 313 314 314 314 315 314 313 315 315 314 315 316 315 317 318 317 316
316 315 314 312 312 311 310 311 311 310 308 308 308 307 307 307 308 309 310 311 312 312 312 312 313 311 309 310 309 309 308 308 309 309 310 310 311 312 313 315 315 313 311 311 310 311 312 311 313 315 316 315 315 317 317 317 317 316 320 328 326 316 315 315 313 313 313 313 313 313 312 313 313 314 314 314 315 315 314 315 315 315 315 315 316 317 316 316
316 315 313 312 311 310 309 309 309 308 308 308 308 308 308 309 310 311 311 312 312 312 311 312 312 310 309 310 309 308 308 309 309 309 310 310 312 313 313 315 315 312 310 310 311 312 313 313 314 316 316 315 315 316 316 315 316 316 316 318 314 310 316 315 312 314 313 313 313 312 313 313 313 314 313 314 318 319 315 315 316 315 315 315 316 316 316 315
316 314 312 311 310 310 309 309 309 308 309 309 309 309 310 310 311 311 311 312 312 311 311 311 310 309 310 310 309 308 309 310 310 310 310 311 312 313 314 315 314 311 310 311 311 312 313 313 315 316 314 313 315 316 316 314 315 319 315 311 311 312 314 313 312 314 313 314 313 312 314 313 312 313 313 313 316 317 315 315 315 315 316 315 315 315 316 315
315 313 312 310 310 310 309 309 309 309 309 309 310 310 310 310 310 311 311 312 311 311 311 310 310 309 310 310 309 309 309 310 312 312 311 311 313 313 314 314 312 310 310 311 311 313 313 313 315 315 313 313 314 313 314 314 313 319 318 311 312 312 312 313 313 313 313 314 314 313 314 313 313 314 312 312 315 315 314 315 314 315 316 315 315 315 315 315
313 312 311 309 309 309 308 309 309 309 309 309 310 309 309 310 310 311 311 311 311 311 310 309 309 309 310 310 308 309 311 310 312 313 311 313 314 313 314 313 310 310 311 311 312 313 313 314 314 314 313 311 313 313 313 314 313 317 318 312 312 313 312 313 313 313 312 313 313 313 313 312 313 312 311 313 315 315 314 314 314 314 315 314 315 315 315 314
312 311 311 309 308 309 308 309 309 309 309 309 309 309 309 310 310 311 311 311 311 310 310 309 310 309 310 310 308 309 311 310 313 313 311 315 315 313 314 312 310 310 310 311 311 313 313 313 313 314 313 310 312 313 313 315 315 314 314 312 312 312 312 312 313 313 312 313 313 313 313 312 312 312 313 314 314 315 315 314 314 315 315 315 314 314 315 314
312 311 310 309 308 308 308 309 309 309 309 309 309 309 309 310 310 311 311 311 311 310 310 309 309 309 310 310 308 309 310 310 313 314 312 315 316 314 313 311 310 311 310 311 311 313 314 313 314 314 313 312 312 312 312 315 315 313 312 312 312 312 312 312 313 313 313 313 313 314 314 312 311 313 316 315 314 314 315 314 314 315 315 315 315 314 314 314
311 311 310 309 308 308 308 309 309 309 309 309 309 309 309 310 311 311 311 311 310 310 309 309 309 309 309 309 308 308 310 311 313 313 312 313 315 314 312 311 311 311 310 311 311 313 313 313 313 313 313 313 312 311 312 313 313 312 313 313 312 311 313 313 313 313 313 313 312 314 313 312 312 313 316 314 314 315 314 315 314 315 316 316 315 314 315 315
310 310 310 309 308 307 308 308 309 309 309 309 309 309 310 310 310 310 310 310 310 309 309 310 309 309 310 309 308 309 313 313 312 313 312 313 315 313 312 311 311 311 311 311 311 312 312 313 313 313 314 313 312 312 313 313 312 312 314 315 314 314 315 312 312 312 312 314 312 312 313 315 315 315 316 313 313 315 314 315 315 315 316 315 316 315 315 315
310 309 309 309 308 307 307 308 308 309 309 309 309 309 309 310 310 310 310 309 310 310 310 310 309 309 309 309 309 309 314 315 313 313 314 315 314 312 312 312 311 311 312 311 312 312 312 314 313 313 313 312 313 312 313 312 311 313 313 316 318 318 316 311 310 312 312 314 312 311 313 319 319 313 313 314 313 314 314 315 315 315 315 315 315 315 316 315
310 309 309 309 308 307 307 308 308 308 309 309 309 309 309 310 310 310 310 310 310 310 310 309 308 309 309 309 310 309 313 316 314 313 314 315 314 312 312 312 312 312 312 312 313 312 314 315 313 314 313 313 313 312 316 314 314 316 311 317 321 315 317 314 309 312 313 313 312 311 313 319 319 311 311 313 312 313 314 315 315 315 315 315 315 315 315 315
311 310 309 309 308 307 307 307 308 308 308 309 309 309 309 309 309 309 310 310 310 309 310 309 308 309 308 309 310 310 311 315 315 314 314 314 313 312 312 312 313 314 314 313 313 314 314 314 314 314 312 314 313 314 320 319 320 320 312 319 320 312 320 319 308 309 314 313 311 311 314 319 317 311 311 313 313 313 313 314 314 314 314 315 315 315 315 315
311 310 309 309 308 308 307 307 307 308 308 308 309 309 309 309 309 309 310 309 309 309 308 308 308 309 309 309 311 311 311 313 315 313 313 313 312 312 312 312 314 315 315 313 313 314 314 314 314 313 312 313 315 319 323 320 323 322 314 319 319 314 320 319 311 308 310 313 312 311 315 319 317 312 312 313 312 314 313 314 314 313 314 314 314 315 315 315
312 311 310 309 309 308 307 307 307 308 308 308 309 309 309 309 309 309 309 308 308 308 307 307 308 309 309 310 313 313 311 312 314 313 313 313 312 312 312 312 314 315 314 313 313 313 314 314 312 313 313 311 314 320 320 316 319 320 316 318 318 317 317 317 317 310 308 313 314 313 314 319 319 312 312 313 311 313 313 314 315 314 314 314 315 315 315 315
313 312 311 310 309 308 307 307 307 307 308 308 309 309 309 309 308 308 307 307 307 307 307 308 308 310 311 310 312 314 312 311 313 313 312 312 312 312 312 312 313 314 314 313 313 314 314 312 312 317 316 312 313 317 317 317 318 318 317 317 315 316 314 316 320 312 310 314 315 316 315 318 319 313 312 313 312 312 313 314 314 315 315 315 316 315 315 316
314 313 312 310 309 308 307 307 307 307 308 308 308 308 308 308 307 306 305 306 307 308 309 309 308 312 313 310 311 314 312 311 312 312 312 312 312 312 313 312 313 313 313 313 314 313 313 313 313 317 317 314 314 314 317 321 321 320 320 320 321 321 318 317 318 311 309 315 317 318 318 318 320 316 313 313 311 311 312 313 314 315 316 316 316 316 316 316
314 313 312 310 309 308 307 306 307 307 307 308 308 308 308 307 308 309 307 307 309 309 310 310 309 312 312 309 310 313 312 311 312 312 312 312 312 313 313 313 313 313 313 316 317 313 313 316 316 317 316 315 314 313 316 319 318 318 319 321 322 321 319 316 316 311 307 314 318 317 318 318 318 317 312 311 311 309 310 312 314 315 315 315 315 315 316 316
315 314 313 311 309 308 307 307 307 307 307 307 308 308 308 307 309 310 308 308 310 310 310 310 309 311 311 309 311 313 312 312 312 312 312 312 312 313 313 314 314 314 313 313 315 312 313 317 317 317 314 313 314 315 317 317 317 318 318 319 318 318 319 314 314 313 308 312 318 315 317 317 317 317 311 309 311 310 311 312 313 315 315 315 315 314 315 315
316 315 314 312 310 308 308 307 307 307 307 307 307 308 308 308 309 310 308 309 310 310 311 310 308 311 312 310 312 313 312 312 313 312 312 312 313 313 313 314 315 316 313 311 314 314 314 317 317 312 308 310 313 315 319 320 321 322 318 317 318 317 318 314 312 314 310 313 318 317 318 318 317 317 311 307 310 311 311 312 312 314 314 314 314 315 314 314
316 316 315 313 310 309 308 307 307 306 306 307 307 308 308 307 310 310 307 308 309 309 311 310 308 311 312 311 313 313 312 312 313 313 313 313 314 313 313 313 315 317 315 314 317 316 317 318 313 305 305 312 314 314 318 319 319 321 319 319 319 316 318 318 314 314 311 312 317 318 317 317 316 317 315 308 306 309 310 311 312 312 313 314 314 314 314 314
316 315 315 314 311 309 308 307 306 306 307 307 307 308 308 307 309 310 307 307 309 310 311 310 309 310 312 312 313 313 312 311 312 313 313 313 314 313 313 312 314 316 314 315 316 316 317 312 305 304 309 316 315 313 316 318 316 317 323 327 324 319 320 318 314 315 314 311 314 315 315 322 324 323 324 313 305 306 308 309 312 312 312 313 314 314 314 315
316 315 315 314 311 309 308 306 307 306 306 307 307 308 307 308 309 309 307 309 311 311 310 310 310 310 311 312 313 313 312 312 312 313 313 314 314 313 313 311 313 315 315 314 314 315 315 307 304 309 312 316 317 315 317 320 317 315 322 329 327 326 323 317 315 316 318 315 311 310 314 329 333 327 327 320 313 314 309 305 310 312 312 311 313 313 313 314
315 314 314 313 310 309 308 307 307 306 307 307 307 308 307 308 309 308 310 312 312 310 310 311 310 311 311 312 313 312 312 313 313 313 313 314 314 313 313 311 311 314 314 312 313 315 312 306 309 315 314 315 316 316 316 318 319 315 316 320 323 327 325 321 318 315 319 314 308 309 315 322 327 325 325 320 319 323 313 306 308 311 313 312 313 314 313 314
314 313 313 312 310 309 308 308 307 306 307 307 307 308 307 308 308 308 310 310 310 310 310 310 310 311 312 313 313 312 313 315 314 313 314 314 314 312 314 313 311 312 310 310 313 314 311 310 312 315 317 317 316 316 315 316 319 317 314 316 323 327 324 324 323 319 320 314 312 318 318 315 318 320 321 316 316 321 319 315 311 310 314 314 314 314 313 313
314 313 313 311 309 309 308 308 307 306 308 307 307 308 307 308 308 308 311 309 308 310 309 309 309 311 313 313 313 312 313 315 314 314 314 314 314 312 314 313 314 316 309 310 316 312 311 316 315 315 319 318 317 318 314 315 321 318 311 314 321 323 325 329 329 326 318 311 318 324 314 312 320 323 320 314 313 318 321 320 314 310 313 314 314 314 313 314
314 313 313 311 309 309 309 308 307 306 308 307 307 307 307 308 308 309 311 308 308 309 308 309 310 311 312 312 311 311 312 313 314 315 314 314 313 312 313 311 311 315 309 310 320 315 310 314 312 314 318 316 316 315 311 318 322 313 307 313 317 318 323 326 327 326 317 313 324 323 311 311 319 327 326 315 313 319 321 319 313 310 313 314 315 315 315 316
313 314 313 310 308 310 310 309 307 307 308 307 307 308 307 309 309 308 307 308 310 309 307 309 311 311 312 312 311 311 312 313 313 314 313 314 313 310 312 310 309 316 316 316 322 316 309 310 310 311 313 312 312 310 308 313 313 308 312 318 317 321 324 324 325 321 315 320 326 318 313 313 312 323 328 315 313 317 318 318 314 311 313 314 315 315 315 316
311 312 312 310 309 311 312 309 306 308 308 307 308 308 308 311 312 309 307 310 314 310 306 308 310 312 313 312 312 312 313 313 312 313 314 313 312 311 311 312 313 318 321 320 319 315 312 313 311 310 309 309 313 313 309 307 306 310 322 323 316 321 324 324 327 319 315 326 322 312 312 312 311 321 322 314 315 316 314 317 316 313 313 313 314 315 314 315
310 311 310 309 310 312 312 309 307 308 309 308 309 308 309 311 310 309 308 309 312 310 309 310 309 312 313 312 314 314 315 315 311 313 316 314 313 312 312 315 317 318 316 317 318 316 316 316 312 310 310 310 318 321 313 311 313 315 320 321 319 321 318 322 327 319 318 322 314 309 312 311 313 318 315 315 319 316 310 311 313 312 312 313 314 314 314 315
310 310 309 310 311 312 312 308 308 309 309 309 308 309 313 312 309 310 310 309 310 310 311 312 311 312 313 312 314 314 314 315 313 312 314 315 314 313 314 316 317 318 317 318 319 316 318 319 314 314 313 310 315 319 317 317 317 315 315 318 321 320 315 318 320 314 315 318 311 308 311 313 316 315 314 317 314 310 308 307 310 311 311 313 313 313 314 315
310 310 310 310 311 312 311 309 308 310 310 309 308 309 313 312 310 310 310 310 312 310 311 313 312 311 312 313 313 314 314 313 313 313 314 314 314 314 315 314 314 320 322 319 318 317 318 319 318 317 315 313 314 316 319 320 316 313 314 314 317 324 322 319 319 318 318 318 312 308 312 319 319 311 312 312 307 307 309 309 311 311 312 313 311 312 315 315
311 310 311 311 311 313 312 309 309 310 309 308 308 309 310 309 311 312 309 311 314 313 311 311 311 312 312 313 312 312 314 314 313 314 315 315 314 314 314 312 312 320 321 316 315 316 315 316 316 313 310 312 315 313 314 317 316 313 312 311 314 321 323 316 312 317 318 315 313 311 315 321 317 309 310 307 305 306 307 308 311 311 312 313 311 313 315 315
311 311 311 311 312 314 313 310 311 311 309 308 308 309 309 310 314 314 309 311 314 312 311 311 312 313 312 311 313 312 312 315 314 314 314 314 314 314 314 313 312 315 316 315 317 316 315 314 314 312 310 310 312 310 309 312 315 313 311 315 316 315 320 316 307 308 310 312 314 313 316 319 314 311 315 312 309 310 309 308 310 311 312 311 312 315 315 315
313 314 313 311 312 314 313 312 313 312 309 308 308 309 310 310 314 315 311 311 312 310 311 312 311 313 312 311 314 313 313 315 314 314 315 313 314 314 314 313 311 311 313 314 317 318 318 316 313 314 314 310 308 308 307 307 311 316 317 316 312 309 316 318 312 314 315 313 316 314 313 317 315 314 319 315 311 314 315 310 307 308 310 311 313 315 314 315
314 315 314 312 312 314 315 314 315 312 308 307 309 312 314 311 310 314 312 308 310 312 313 313 312 312 312 312 313 312 313 315 314 314 315 313 314 315 314 313 311 310 310 310 311 315 319 318 313 312 315 312 310 311 312 308 307 314 316 311 311 315 317 314 312 318 316 313 319 318 311 311 313 317 322 316 313 318 317 310 308 309 310 312 315 314 314 315
314 314 313 313 312 314 316 316 315 312 307 308 309 310 315 315 311 311 310 306 311 314 312 314 313 311 311 311 312 312 312 313 313 313 314 313 314 313 312 313 313 310 307 308 311 312 315 318 314 311 312 313 313 314 316 315 309 309 309 307 313 322 320 315 313 315 315 312 317 320 316 316 315 318 321 315 315 319 315 312 311 309 311 314 314 314 314 314
313 312 312 313 314 315 316 316 314 311 309 309 309 308 313 317 312 310 309 309 312 313 313 317 314 311 312 311 311 311 312 313 313 313 313 313 312 311 310 311 313 310 306 308 313 313 313 314 313 311 311 313 317 316 315 316 312 311 312 310 313 315 314 314 313 313 317 318 318 317 318 322 320 316 317 314 315 314 312 314 313 309 313 315 313 314 314 313
309 310 311 311 314 314 315 316 314 311 311 312 312 311 313 314 312 310 311 311 312 312 314 317 315 313 315 312 311 312 312 313 313 312 313 312 311 312 311 310 311 311 308 308 313 315 313 312 315 315 314 315 317 313 311 314 314 312 313 312 313 314 314 315 313 311 313 315 318 316 314 320 320 313 312 314 311 306 304 307 309 310 314 315 313 314 313 313
307 309 309 310 313 313 313 315 312 310 313 313 312 312 312 312 312 313 311 311 313 313 312 315 318 318 316 312 311 312 313 314 313 313 314 313 312 312 310 309 309 309 310 311 312 312 313 317 320 319 317 316 313 308 304 309 314 313 313 314 315 313 314 317 316 314 311 308 312 313 313 320 322 309 306 308 305 303 303 305 308 312 313 314 313 313 313 313
305 306 308 310 312 312 312 314 312 310 311 310 309 310 310 311 313 313 313 312 314 314 314 317 317 315 313 313 312 312 312 312 312 313 314 313 311 311 309 308 309 309 310 313 312 310 311 317 318 317 319 319 315 310 306 309 312 313 314 315 314 313 316 321 321 317 314 311 312 312 312 321 324 307 300 303 302 303 306 308 311 313 313 312 312 312 313 314
303 305 306 308 311 310 310 312 312 311 309 308 310 311 310 311 312 313 316 315 314 315 318 320 314 311 315 316 313 312 312 312 313 312 314 314 310 308 308 307 309 311 311 312 313 310 311 316 316 315 319 319 317 316 315 315 314 315 319 316 313 315 316 316 315 312 313 316 316 315 314 321 325 311 303 306 306 305 308 310 312 313 312 312 312 313 314 313
303 304 304 306 308 308 307 308 310 310 308 309 312 312 311 311 311 312 315 315 313 313 317 318 313 313 318 316 312 312 312 313 314 312 313 315 311 308 308 308 308 310 310 311 311 310 313 316 315 314 315 315 315 316 316 317 314 315 319 315 311 314 314 313 315 313 314 316 314 315 316 316 317 313 310 311 311 310 310 310 311 312 311 311 312 313 313 313
304 305 305 305 306 306 306 305 306 307 308 310 311 311 312 313 311 310 313 313 312 312 314 314 312 314 318 314 312 313 311 312 315 313 312 314 313 311 309 308 307 307 309 310 309 312 318 317 313 312 313 312 313 315 317 319 317 315 317 314 312 313 313 315 319 316 314 315 313 314 315 313 313 313 311 312 314 314 312 309 310 311 311 312 312 312 313 313
303 305 305 306 306 305 305 304 304 305 308 310 311 310 311 313 312 312 312 311 312 313 313 313 314 316 317 314 313 314 312 312 314 314 314 314 314 312 309 309 308 307 309 309 307 313 320 316 312 313 313 311 314 319 319 318 318 316 316 315 313 313 313 315 316 314 314 315 313 313 313 312 312 314 314 314 314 314 311 308 309 311 311 312 313 313 313 313
302 303 303 304 306 306 306 305 303 304 307 308 310 311 310 312 313 314 312 311 312 313 314 314 315 317 316 315 314 315 314 312 313 316 316 316 316 314 311 310 309 308 311 310 307 312 317 314 313 313 312 311 314 318 318 317 317 316 316 316 314 313 313 314 313 313 314 314 312 313 314 313 311 314 316 314 310 311 310 309 310 311 311 312 312 312 313 313
301 301 301 302 304 304 305 306 304 304 306 307 308 309 310 311 312 312 312 312 313 313 314 315 317 316 316 316 315 317 316 312 313 316 316 315 316 315 315 315 311 308 311 313 309 309 313 317 317 312 311 313 313 314 316 317 316 315 315 315 313 312 313 313 313 313 312 313 312 313 315 315 311 313 315 311 308 308 309 309 310 311 311 312 312 313 313 312
300 300 300 301 301 300 302 306 306 305 306 306 307 308 309 310 311 311 311 313 315 314 313 314 316 316 316 316 316 318 316 314 315 317 315 315 316 316 317 318 314 310 310 313 312 308 310 317 318 312 311 314 314 314 316 315 315 315 315 313 312 312 312 312 313 313 312 312 312 312 314 314 310 309 310 309 307 308 308 309 310 311 312 312 312 312 312 312
299 300 300 301 302 301 302 305 306 306 307 307 307 308 308 309 310 311 311 311 313 314 313 314 316 315 315 315 316 316 314 313 315 315 314 314 315 314 315 314 314 314 312 312 314 312 311 315 316 314 313 315 314 315 314 312 311 312 314 314 313 312 312 312 312 312 312 313 313 313 313 312 310 308 308 308 306 306 308 309 310 311 311 312 312 312 312 312
298 300 299 300 302 302 302 304 307 307 308 307 307 307 308 308 308 310 311 310 310 312 312 313 314 315 315 315 315 315 312 312 313 312 311 311 311 311 312 311 311 314 314 313 316 316 314 316 318 316 315 315 313 312 313 312 311 312 312 313 313 311 312 312 311 312 312 312 314 313 312 313 313 310 311 311 308 306 307 309 310 311 311 311 311 311 311 311
Wind_Speed
23 24 26 25 24 25 27 27 27 27 27 27 28 28 27 27 26 25 24 23 22 23 23 23 22 21 20 19 18 16 14 14 15 16 18 16 15 13 12 14 12 13 14 12 12 11 11 10 10 10 10 10 8 10 9 6 7 4 3 4 2 4 3 6 7 7 4 3 7 11 17 11 4 9 10 6 5 6 10 11 8 11 13 9 5 4 11 20
25 25 26 25 24 26 27 27 26 26 27 27 28 28 28 27 26 25 24 24 24 25 25 23 21 20 19 18 16 15 14 14 14 16 18 14 13 14 14 14 12 12 13 12 12 11 11 11 12 12 10 9 6 9 9 5 6 3 3 3 3 5 4 6 8 9 3 1 9 12 15 11 6 12 12 5 4 6 8 9 9 11 14 11 8 8 11 19
25 24 27 27 25 26 27 26 25 26 27 28 28 28 28 27 27 26 26 25 26 25 24 22 20 19 18 17 15 14 13 11 12 17 17 14 14 15 14 15 13 11 12 11 12 11 10 11 12 12 11 8 5 8 8 4 4 2 3 3 4 6 4 5 7 9 5 2 10 12 12 10 7 12 12 6 4 4 7 10 10 12 15 13 11 10 12 19
25 24 27 27 25 26 27 26 26 27 28 28 29 29 29 28 28 27 27 26 25 24 22 21 19 18 17 17 15 13 11 6 11 16 16 15 15 16 15 16 13 10 11 12 12 11 10 11 12 12 9 5 4 7 6 4 4 2 4 3 5 5 2 3 5 6 6 5 9 12 9 7 8 12 11 8 5 3 11 17 17 15 15 14 14 12 13 19
25 24 25 26 25 26 28 27 28 29 29 30 30 30 29 29 28 27 27 25 23 22 21 20 18 17 17 17 14 12 9 2 8 15 15 16 16 17 16 15 14 11 13 14 13 12 10 11 13 11 7 3 4 5 3 4 4 3 2 2 3 6 2 2 2 3 6 7 9 11 8 7 10 10 12 12 7 6 11 16 18 16 14 13 14 14 15 19
25 23 24 25 25 26 27 27 28 29 30 30 30 30 29 28 27 26 25 24 23 21 20 19 18 18 18 17 14 13 12 2 4 14 15 17 17 18 16 14 14 12 14 15 14 13 11 11 13 11 6 3 3 3 3 6 5 2 1 2 4 5 2 2 1 2 5 9 13 12 8 9 10 7 10 15 15 11 6 7 11 15 15 14 14 15 16 19
25 23 22 23 24 26 27 27 27 28 28 28 28 28 28 27 26 25 25 23 22 21 19 19 18 19 19 18 14 15 16 5 2 14 16 17 18 18 17 14 14 14 16 16 15 15 12 12 14 11 6 3 3 3 3 7 4 2 1 1 5 3 2 2 1 2 5 8 12 11 8 7 9 6 6 15 22 17 9 5 5 10 15 16 15 16 16 17
24 22 20 21 22 24 27 27 26 27 27 28 27 27 27 26 26 25 24 23 22 20 19 19 19 20 19 18 15 13 16 10 3 13 17 17 18 18 17 14 14 15 16 16 15 16 13 12 15 12 5 1 5 5 6 6 1 2 3 3 5 2 1 2 2 4 5 6 8 8 6 4 7 5 4 14 20 17 17 14 8 8 13 18 17 17 17 17
23 21 20 20 21 22 26 27 26 27 26 27 27 27 27 26 26 25 24 23 21 20 19 19 19 19 18 17 14 8 12 12 5 11 18 18 17 16 16 14 14 15 15 16 15 16 13 11 15 12 4 4 6 6 8 6 2 3 5 5 5 3 3 3 3 5 5 5 6 6 2 0 4 3 7 15 17 16 17 18 15 11 12 17 19 18 17 18
22 21 21 21 22 22 24 27 27 27 26 27 27 27 27 26 26 25 24 22 21 20 19 19 18 19 17 16 12 5 10 13 6 10 18 18 16 14 15 14 14 14 14 16 16 16 14 11 15 13 3 5 7 5 7 5 3 6 11 9 6 4 3 2 2 4 4 5 3 4 2 1 2 1 5 7 8 13 16 16 17 14 11 15 18 19 18 18
23 22 22 21 22 22 24 27 27 26 26 27 27 27 27 26 25 24 23 22 21 20 19 19 18 17 17 15 12 6 8 12 7 9 16 17 15 13 13 14 13 14 13 15 16 16 14 10 13 13 3 4 8 5 5 3 3 11 15 10 6 4 3 3 2 2 3 3 1 3 1 2 2 2 7 4 2 6 12 15 16 16 13 12 16 18 19 19
22 22 22 22 22 23 25 25 25 25 26 26 27 27 27 26 25 24 22 21 20 19 19 18 17 17 16 14 14 10 7 10 8 8 15 16 14 13 13 13 12 13 13 13 15 14 13 11 12 12 4 7 8 4 4 5 7 10 10 5 5 6 3 3 2 1 1 2 1 4 1 4 3 7 8 6 4 4 9 14 16 17 16 14 15 17 19 18
21 22 22 22 22 23 24 24 24 25 26 26 26 26 26 25 24 23 22 20 19 19 18 17 16 16 15 11 13 13 7 9 9 8 14 16 14 14 13 12 12 12 12 12 12 12 11 11 11 11 7 8 6 5 7 7 8 5 4 4 2 6 3 3 2 0 2 1 1 4 1 6 8 10 8 6 6 5 8 12 15 17 18 17 17 18 18 18
20 22 22 23 22 23 24 24 25 25 26 26 26 26 25 24 23 22 21 20 19 18 17 17 16 16 15 9 9 14 10 8 10 10 14 17 15 14 13 12 11 10 11 11 11 12 11 10 10 10 8 7 8 11 7 5 5 2 2 2 2 1 4 5 2 2 4 1 1 5 1 6 8 8 6 9 10 8 10 11 12 14 17 19 20 20 20 20
19 20 22 22 22 23 25 26 26 26 26 25 25 25 23 23 22 20 20 19 18 17 16 16 17 15 12 8 7 12 14 9 9 12 15 17 16 15 14 12 11 10 11 12 12 12 11 10 10 8 8 10 13 10 4 4 4 3 2 1 3 3 5 7 2 2 4 2 1 5 1 7 8 6 1 3 6 9 13 14 13 15 16 19 21 22 22 21
18 19 21 22 22 23 25 26 27 27 26 25 24 23 21 21 20 19 18 17 17 16 16 15 17 15 7 6 8 10 15 12 10 13 15 16 16 15 14 12 12 11 10 11 12 12 12 10 9 9 9 9 8 6 5 4 3 4 2 2 2 2 3 4 1 2 2 2 1 2 2 4 4 5 3 3 2 3 8 11 11 13 15 17 20 21 22 22
17 19 20 22 23 23 25 26 26 27 26 25 24 21 20 19 18 18 17 17 16 15 15 14 16 13 5 6 9 9 15 15 11 14 16 16 16 15 15 13 13 12 11 11 12 13 12 10 9 6 5 4 3 5 5 1 3 2 2 2 3 3 2 2 2 3 3 3 1 2 2 6 6 8 10 6 7 9 10 11 9 8 11 14 16 18 20 21
17 19 20 22 23 23 25 25 26 26 26 25 22 20 18 16 16 17 17 18 17 15 13 13 14 8 6 11 10 9 15 16 13 15 16 16 15 14 14 12 12 13 12 11 10 11 9 6 6 3 3 3 2 5 5 5 5 5 3 3 2 2 3 3 3 2 4 3 2 1 2 9 11 13 18 17 11 12 15 15 14 13 13 13 15 17 19 20
17 18 20 22 23 24 25 25 26 26 25 24 22 21 18 16 16 15 18 21 18 12 6 14 18 6 3 13 14 10 15 16 15 17 18 16 15 14 14 11 13 15 12 8 5 7 7 4 5 3 2 4 6 6 7 8 8 9 6 5 5 4 4 5 4 4 1 3 3 4 5 8 10 11 18 20 12 10 16 17 18 19 18 18 19 20 20 21
17 18 19 22 23 24 24 25 25 24 25 24 25 24 19 17 11 8 18 22 17 8 2 16 24 4 4 13 19 14 15 16 16 19 18 17 16 15 13 12 13 11 7 5 4 4 5 4 3 5 7 8 7 6 6 5 6 7 6 4 4 4 3 3 3 5 1 3 3 3 4 8 11 10 16 23 16 11 18 21 22 22 21 23 23 24 24 24
17 18 19 21 23 24 24 25 25 25 25 24 29 26 19 21 11 6 18 16 11 9 2 14 26 7 4 12 21 17 16 15 16 20 18 16 17 14 11 10 9 5 1 3 5 3 4 5 7 7 7 7 6 6 7 6 6 6 6 5 2 2 2 2 2 4 3 1 2 2 3 9 11 10 15 20 13 11 19 20 22 24 23 25 26 27 28 28
17 17 19 20 22 24 24 25 25 26 26 26 31 25 19 27 15 10 19 9 7 10 1 12 25 10 1 10 18 18 16 11 11 19 19 18 17 12 9 8 6 4 1 3 6 3 3 5 8 6 7 8 7 6 8 7 6 5 4 5 2 2 2 3 3 4 4 0 3 4 5 9 11 10 14 17 14 17 22 21 23 25 26 28 29 29 29 29
19 18 19 19 21 24 23 26 26 28 29 28 32 23 18 27 16 11 17 6 5 9 1 12 22 13 5 10 16 16 13 9 9 18 19 19 17 11 10 8 5 5 3 4 6 5 5 6 6 9 10 10 6 4 8 7 5 4 4 5 3 2 1 1 2 4 4 2 1 2 4 7 8 7 10 12 13 18 20 20 23 24 27 30 29 30 31 31
20 19 20 19 21 23 24 27 29 31 31 28 30 23 20 26 17 14 14 4 3 5 2 11 18 16 10 9 15 14 10 9 10 18 21 20 17 11 9 8 5 5 4 6 8 7 5 4 4 11 8 8 7 3 6 6 2 1 3 6 3 3 4 3 1 1 3 3 3 3 4 6 5 5 7 5 5 10 12 13 17 18 20 23 24 24 25 27
21 20 20 19 21 24 26 28 31 32 31 29 29 23 21 24 18 16 11 4 1 2 1 8 11 13 13 9 14 13 9 8 9 18 22 21 18 10 6 7 5 4 4 5 7 5 4 1 7 10 5 6 8 4 5 7 3 2 3 6 6 7 6 2 2 4 4 4 3 4 3 5 5 5 7 5 7 8 8 9 14 14 13 16 19 19 19 20
21 20 20 20 21 25 26 26 30 33 31 30 28 21 21 23 19 17 8 5 1 2 2 8 6 10 14 10 13 13 6 4 8 18 23 20 18 11 7 5 3 2 5 5 5 2 1 2 5 7 6 7 7 4 6 6 6 2 4 5 6 7 8 6 5 4 2 1 2 3 3 4 7 6 7 5 8 10 10 9 12 14 14 15 17 17 18 18
22 22 21 21 23 27 27 24 31 35 31 30 28 21 22 23 20 15 6 5 2 4 6 7 5 10 12 11 17 12 3 5 9 15 21 19 16 11 7 4 2 2 4 4 2 1 2 4 4 5 6 6 6 5 6 7 8 3 3 5 8 8 8 7 6 4 2 2 3 4 4 1 5 6 7 6 7 10 10 8 11 14 13 12 11 12 12 13
24 23 21 22 26 29 27 23 32 37 29 29 29 22 21 24 21 12 5 2 2 5 6 6 6 10 12 16 19 9 4 11 9 9 18 19 14 8 5 5 5 4 2 5 4 3 2 5 5 6 5 4 5 4 6 9 6 3 3 6 7 7 7 5 6 4 0 1 3 5 2 1 6 7 5 5 4 8 9 8 10 12 10 7 6 4 1 3
24 23 21 23 25 28 23 21 32 34 26 27 29 22 21 23 17 7 4 2 3 4 5 8 9 9 12 15 12 5 6 7 4 8 17 16 11 6 3 6 9 8 3 4 5 3 1 3 5 6 5 4 3 1 2 5 3 5 6 7 6 6 6 5 5 4 2 2 4 5 2 0 5 7 4 3 2 7 8 7 7 7 7 9 11 12 13 13
25 24 22 24 27 27 20 20 30 30 25 29 28 22 23 21 11 5 2 3 3 3 3 9 10 9 12 10 3 1 4 1 4 12 13 9 8 6 7 8 9 8 4 6 4 1 2 1 1 3 3 5 5 4 4 3 6 10 7 7 7 6 5 4 3 4 4 2 6 5 2 0 3 6 4 2 4 6 4 2 4 5 8 10 11 13 13 13
25 26 25 27 31 26 18 22 31 29 27 29 27 25 23 12 4 4 5 3 3 2 2 5 5 8 14 11 4 2 2 2 4 11 8 4 6 6 8 6 4 5 3 4 2 4 4 3 0 1 3 6 7 6 6 5 6 7 4 5 5 4 4 4 5 3 2 4 6 4 2 1 3 5 3 3 6 6 5 3 2 6 10 10 10 11 11 10
24 26 27 29 30 23 18 25 31 29 29 29 29 28 18 5 1 4 4 3 3 3 4 5 4 7 12 10 5 4 3 2 3 7 5 4 4 4 4 4 4 4 1 3 2 3 2 1 1 1 2 5 6 6 5 4 4 5 5 6 5 2 3 2 3 1 2 5 4 2 1 2 5 7 7 9 9 6 7 7 6 7 10 9 7 9 10 10
23 25 30 31 28 21 19 26 30 30 31 32 30 22 9 3 7 7 4 3 2 2 4 5 2 6 11 9 5 4 3 2 4 3 3 4 5 4 2 2 5 5 3 5 4 1 1 4 2 3 1 5 5 5 3 1 0 4 5 5 4 3 2 2 4 2 3 4 3 3 2 2 5 6 9 11 9 8 9 9 8 8 9 8 6 8 10 11
22 24 29 28 24 21 20 26 30 30 33 34 26 12 5 5 8 5 5 4 1 2 3 4 6 7 8 6 5 6 4 1 4 4 2 4 5 5 4 4 4 5 4 4 3 5 4 4 3 3 2 5 5 4 6 6 3 3 3 5 5 5 5 4 4 3 4 3 3 4 2 3 3 2 5 9 10 12 12 9 7 8 7 6 5 7 10 13
22 24 26 25 22 19 20 26 29 29 34 30 16 6 7 10 6 4 7 5 1 2 3 4 8 9 4 2 1 5 3 1 4 4 3 5 6 7 6 6 6 4 6 5 3 3 4 4 4 2 0 6 5 3 5 7 3 2 2 5 3 4 5 3 3 5 3 0 2 2 3 4 3 5 6 6 10 11 9 9 9 8 6 4 2 7 12 15
22 25 23 22 23 19 20 27 26 28 33 23 8 7 9 6 4 5 6 5 5 6 7 5 4 5 4 2 1 5 1 2 5 3 4 4 4 7 7 5 7 5 5 6 3 2 3 2 4 4 2 3 2 2 2 3 3 2 2 3 4 4 8 6 2 1 3 1 3 1 4 5 4 6 7 4 5 7 5 4 6 6 5 4 2 9 15 18
23 27 24 21 22 19 20 25 23 27 29 15 6 9 5 1 4 4 5 7 9 10 10 5 2 4 6 3 5 8 2 3 4 3 4 3 2 7 7 5 8 10 7 4 2 3 5 1 3 2 2 2 2 4 5 5 4 4 3 5 4 3 5 5 2 3 4 2 4 1 4 5 2 3 7 4 2 6 5 2 2 3 4 7 9 12 17 20
25 25 24 21 21 20 20 21 21 26 22 8 8 10 2 2 3 3 6 9 10 8 6 5 3 3 7 6 6 8 6 5 6 4 5 4 4 7 10 6 6 12 11 4 1 2 5 3 3 2 2 2 3 4 4 5 5 4 5 4 4 3 2 2 2 1 1 2 4 4 3 3 4 4 5 2 7 8 6 2 1 5 9 12 14 15 18 20
27 22 17 19 22 21 19 19 20 23 15 6 10 9 1 2 1 2 7 9 8 6 4 5 3 1 5 6 6 7 6 6 8 6 4 5 4 6 12 9 4 10 13 7 3 3 4 4 2 2 1 1 3 2 5 1 4 4 3 3 3 3 4 2 2 4 3 3 3 4 3 3 6 6 6 8 10 8 5 2 2 6 12 15 17 18 18 18
21 15 9 16 24 22 21 20 18 15 8 5 7 4 1 1 1 2 6 7 4 3 4 5 3 3 4 3 3 5 4 4 8 7 4 5 5 4 9 10 5 8 11 6 4 3 3 3 3 1 3 1 2 3 6 7 3 3 3 4 2 1 3 2 0 3 4 4 3 2 3 5 6 4 7 9 7 6 7 6 6 11 16 17 17 17 16 15
11 7 5 11 20 24 25 20 11 8 4 2 2 1 1 1 2 2 4 4 3 3 3 5 4 5 5 4 3 5 4 3 6 5 3 5 6 4 7 11 9 9 8 4 3 4 2 3 4 2 0 3 3 3 3 5 6 6 5 6 6 4 4 3 3 1 3 3 4 3 3 7 6 3 5 7 5 7 10 10 11 15 18 18 16 14 12 11
5 2 4 10 15 23 26 14 3 2 2 2 2 2 2 2 3 3 3 3 3 3 3 4 3 3 5 5 4 6 6 4 5 6 4 6 8 5 6 11 15 16 11 4 3 3 3 4 4 2 3 4 2 2 2 3 2 4 3 4 6 4 5 6 6 4 2 1 2 3 2 7 6 3 5 7 5 6 12 16 17 17 18 17 14 11 10 10
3 2 4 10 15 23 20 6 1 2 1 2 3 3 3 2 2 2 2 1 2 2 2 2 2 2 3 3 4 7 8 5 5 7 5 5 6 4 6 14 19 17 10 4 3 3 3 4 3 0 3 3 4 4 2 2 2 2 3 3 5 4 3 5 5 4 4 4 3 3 2 7 6 4 5 6 4 4 12 19 21 20 18 14 11 9 10 10
5 2 1 7 14 19 13 2 4 6 2 2 3 3 2 2 2 3 3 2 1 2 3 2 2 2 2 3 5 7 9 6 5 8 4 2 4 4 8 17 19 13 8 7 8 9 6 2 4 3 2 3 4 3 3 3 1 4 4 3 5 4 6 5 2 4 2 5 7 5 4 7 6 4 3 2 1 6 12 18 21 20 16 11 9 9 8 8
5 2 1 5 8 10 5 1 2 3 3 4 4 3 3 2 1 2 3 2 2 3 3 2 2 3 3 2 4 4 8 5 3 5 4 2 2 1 5 15 18 11 6 6 11 14 8 3 5 6 5 6 6 5 4 3 3 2 2 4 6 6 8 5 3 4 3 5 6 6 6 6 5 3 4 3 1 5 10 13 16 16 12 8 7 8 7 7
5 2 1 2 6 8 4 2 3 2 3 5 4 3 4 2 0 1 3 2 1 3 3 1 3 4 3 3 5 4 8 3 2 3 5 5 3 1 1 8 13 11 4 5 15 14 4 1 6 8 10 11 10 7 4 6 6 4 4 6 7 7 9 6 4 4 6 3 4 7 8 7 6 3 2 4 6 7 9 13 17 14 9 6 6 7 7 6
3 1 2 3 4 5 4 4 5 2 2 5 4 4 5 3 1 1 2 1 3 4 2 2 2 3 3 7 6 4 7 4 2 3 4 4 2 2 2 2 7 8 4 7 15 11 4 3 8 8 12 10 5 5 5 7 8 9 9 10 10 10 10 9 8 11 6 5 6 11 8 8 9 6 7 9 8 7 9 17 20 13 7 4 4 6 5 3
2 1 3 3 2 3 3 5 8 5 2 3 2 3 8 6 3 3 2 0 1 4 2 1 1 3 5 7 5 5 6 4 3 3 2 2 2 2 2 3 1 5 4 5 8 6 4 6 7 6 10 9 3 5 6 7 8 9 11 13 13 12 13 13 15 15 8 7 13 10 9 12 12 8 10 12 12 14 17 21 18 9 5 4 3 3 2 1
1 1 2 3 2 1 1 6 10 8 5 5 3 2 8 10 8 5 3 2 0 2 3 3 3 3 4 4 4 5 6 5 5 5 3 3 3 3 3 1 0 3 4 4 3 3 3 4 5 7 8 10 5 5 5 7 7 6 9 13 13 15 17 17 18 19 14 13 16 8 9 14 12 9 11 14 19 21 18 18 15 8 5 5 3 3 3 1
2 1 2 3 2 2 1 6 10 7 4 6 4 2 5 9 10 7 3 4 4 2 3 4 4 4 4 4 5 4 5 4 3 6 6 5 3 3 3 4 3 2 3 4 2 3 4 3 3 7 4 8 5 6 5 6 7 6 6 9 10 13 15 16 18 17 12 12 14 7 6 12 7 10 12 14 17 16 12 13 13 8 6 6 6 6 3 1
4 2 3 3 1 1 1 2 6 5 3 4 5 4 5 7 8 6 2 3 5 5 6 7 5 3 3 4 4 4 5 4 4 5 8 6 4 4 2 4 6 5 4 4 3 3 4 2 2 5 4 6 3 7 7 4 3 2 4 7 11 12 13 15 14 11 9 11 12 9 10 12 5 10 10 9 11 13 14 16 13 7 7 8 7 6 4 3
8 4 2 2 0 1 1 0 2 4 3 4 5 5 5 6 6 5 2 2 3 6 9 10 8 4 3 5 7 6 6 7 7 7 7 5 5 6 5 5 9 8 6 5 2 2 5 4 2 4 5 4 2 5 7 6 4 4 8 12 16 15 13 11 8 9 12 12 10 10 12 11 5 9 8 5 9 13 18 19 14 10 10 9 7 6 6 5
Wind_Direction
185 191 188 188 188 185 185 186 185 187 187 189 192 196 200 203 205 206 207 206 202 196 191 188 185 187 194 201 204 204 208 211 217 222 222 216 210 215 209 198 191 189 193 197 202 205 198 190 182 176 175 167 157 167 162 168 171 146 110 96 151 178 197 187 180 191 165 199 200 187 185 173 184 186 176 178 179 191 189 196 207 207 209 218 231 228 195 191
189 195 193 187 183 184 185 185 186 187 187 189 192 195 198 199 199 199 198 195 189 185 182 183 184 190 197 200 200 199 206 211 219 224 218 211 208 208 204 196 190 190 194 197 199 197 193 188 179 173 170 159 146 167 169 171 162 128 102 110 197 201 201 191 180 188 173 190 184 180 187 183 187 178 172 186 191 179 187 207 217 216 215 215 215 215 205 196
191 198 197 189 182 183 184 185 186 186 187 188 190 192 194 193 192 189 186 182 180 180 181 183 186 192 197 198 197 197 203 211 226 224 209 205 209 201 198 197 190 188 192 193 190 185 188 187 177 172 166 151 141 166 170 170 173 145 111 127 232 212 207 210 192 195 206 188 169 171 184 189 187 175 177 192 181 181 202 208 210 217 215 209 207 212 206 199
194 198 198 191 182 181 182 184 185 186 186 186 187 187 187 185 183 180 178 177 179 181 182 183 188 194 196 196 195 196 196 208 234 223 204 203 205 195 195 198 192 191 190 183 179 177 180 181 175 173 162 137 127 159 173 175 183 173 136 170 228 187 163 215 202 209 211 188 173 169 167 184 184 176 184 175 145 242 233 216 214 221 215 204 204 208 203 200
196 197 196 192 183 179 181 183 184 185 184 184 183 182 181 179 178 177 177 177 180 182 183 183 189 194 195 194 193 188 172 153 235 217 203 201 197 192 193 194 194 192 185 177 174 172 171 175 171 167 154 121 119 142 190 184 157 151 168 238 192 150 114 189 188 219 207 184 172 163 157 180 176 180 196 180 172 231 237 228 228 231 223 212 211 207 200 201
196 196 193 192 185 178 181 183 183 183 183 182 180 179 178 178 178 177 178 179 181 183 184 185 189 193 192 191 191 180 169 128 222 199 198 196 190 191 191 191 192 186 181 177 173 169 166 170 168 162 141 100 141 139 176 181 163 159 258 308 160 149 80 126 158 204 191 174 169 167 173 179 168 188 208 201 216 230 241 249 238 235 227 221 219 211 205 205
196 195 192 191 186 180 180 182 183 182 182 181 179 180 179 179 179 178 179 180 182 184 185 188 190 192 189 190 189 183 193 238 222 186 190 188 186 188 188 189 186 180 180 178 174 170 165 169 169 161 129 84 167 156 138 166 163 128 161 246 163 167 27 89 121 158 170 176 176 173 177 179 177 193 212 220 231 234 237 253 253 240 224 219 219 217 217 216
198 197 194 192 190 183 180 181 183 182 183 182 181 181 181 181 180 180 180 182 185 185 187 190 191 191 188 191 190 188 209 235 221 183 184 181 184 185 186 188 184 179 181 182 178 171 167 171 171 162 139 134 178 164 142 145 108 101 156 181 149 133 78 87 80 130 154 170 173 170 168 190 202 208 242 239 240 238 235 240 258 258 225 218 220 221 222 221
198 198 195 192 191 187 182 181 182 183 184 185 184 183 182 182 182 182 181 185 187 187 190 191 192 191 189 193 192 193 214 218 206 183 181 179 181 183 186 186 183 182 183 184 181 176 175 174 176 173 171 186 165 155 155 150 243 183 147 149 133 92 90 110 99 111 128 146 158 168 142 90 196 232 267 254 252 244 237 237 244 255 236 223 222 223 223 222
198 198 195 192 190 188 186 184 183 184 186 187 187 185 184 183 184 183 183 186 188 188 191 192 191 190 190 193 189 195 211 206 204 184 182 182 182 184 186 183 182 185 188 186 183 183 182 179 183 181 172 173 153 142 162 160 212 158 127 113 100 82 74 84 125 106 113 123 137 174 189 306 155 199 258 262 263 238 231 233 233 239 240 228 224 224 224 225
197 196 193 192 190 188 188 186 184 185 188 190 190 189 186 185 186 186 186 188 188 188 191 193 192 189 191 192 189 198 205 200 201 184 184 186 187 186 184 183 184 187 193 191 187 186 185 185 185 182 186 171 153 129 162 166 146 139 127 104 48 56 76 42 99 116 105 107 78 137 175 295 122 201 238 243 299 233 223 226 226 228 232 230 226 224 225 228
194 194 192 191 189 190 189 186 186 188 191 191 192 192 189 188 189 189 188 188 187 187 190 191 190 190 191 195 204 209 207 202 200 186 185 187 187 186 182 184 187 188 193 193 190 187 187 188 185 189 189 156 152 120 153 150 128 130 124 116 1 15 34 1 45 104 105 97 76 102 24 294 232 227 236 231 248 245 222 223 225 225 229 230 226 225 226 230
191 192 192 191 189 190 189 186 187 190 193 194 194 195 191 190 191 190 189 188 187 187 188 188 187 189 188 198 213 212 211 205 200 189 183 185 185 183 181 183 184 186 186 187 187 182 181 184 189 194 172 152 147 123 136 122 117 120 84 115 31 13 352 324 13 126 142 120 153 125 263 280 260 244 233 227 230 228 224 221 223 226 230 232 230 230 229 231
188 190 192 191 190 187 187 187 188 191 193 195 196 196 194 192 192 191 189 187 185 185 186 186 183 184 189 204 219 212 209 201 197 192 182 183 182 178 177 176 175 179 180 178 178 176 170 170 183 181 156 147 135 122 111 56 77 100 50 69 62 126 260 303 349 149 143 169 183 125 187 263 272 271 240 236 236 230 230 220 220 228 231 234 234 235 237 237
184 187 191 192 191 186 187 188 189 190 192 195 197 196 194 193 193 190 187 186 184 184 184 184 181 180 191 213 223 210 206 202 198 192 183 182 181 178 174 169 166 167 172 174 175 175 167 164 171 154 129 134 131 117 61 16 34 38 107 311 351 164 255 309 348 139 147 180 113 114 205 268 269 274 243 233 240 238 244 241 239 240 237 237 237 238 242 243
183 185 190 194 192 188 188 188 189 189 189 193 196 195 194 193 192 189 186 183 180 180 179 180 181 177 180 211 212 208 204 203 197 190 185 182 181 179 172 167 165 163 164 170 175 176 169 161 147 126 121 131 128 103 58 37 357 359 107 190 267 174 266 314 348 341 116 139 38 95 214 271 280 252 194 85 10 295 269 267 257 247 244 242 242 244 246 247
185 185 189 192 193 192 190 188 189 188 187 190 192 193 192 190 189 186 181 176 174 174 175 178 179 180 204 217 206 206 200 199 193 187 184 180 181 180 173 167 165 166 161 161 169 170 164 152 138 128 109 108 108 98 90 344 261 292 53 116 221 193 209 283 293 330 45 121 238 34 224 250 274 269 254 264 303 305 293 287 280 262 251 246 245 247 247 249
188 186 188 191 193 193 191 189 188 187 187 186 186 187 187 187 184 182 177 168 160 156 165 175 167 172 235 219 201 197 196 195 190 184 180 178 179 179 178 170 165 166 154 147 159 160 152 132 125 131 53 71 135 125 146 214 197 184 169 145 216 220 213 248 248 288 23 88 194 354 274 262 274 283 278 277 286 288 283 282 281 272 260 254 250 248 247 246
192 189 189 190 193 192 191 190 188 187 185 181 180 179 177 175 172 173 172 163 154 146 162 182 171 155 256 201 191 189 189 189 186 181 178 176 174 177 180 174 170 165 148 137 156 156 139 103 101 136 151 169 192 172 179 198 173 169 174 147 158 182 232 243 243 274 4 114 218 233 240 270 279 285 286 284 284 281 281 281 276 271 264 259 254 252 249 246
193 192 191 191 193 191 189 189 188 186 182 179 177 171 163 157 148 162 171 165 165 158 141 182 181 174 12 176 179 180 178 178 182 179 176 178 175 173 171 166 165 159 148 145 159 153 126 131 173 189 190 191 192 160 144 159 140 137 132 117 150 174 238 249 258 302 11 142 245 246 247 275 272 274 279 281 287 284 278 277 272 268 262 259 257 255 253 250
192 194 193 193 192 190 188 186 186 184 180 180 178 172 170 167 156 171 174 171 182 174 107 179 184 198 9 166 174 173 168 166 177 179 177 180 174 169 167 158 150 144 191 137 119 113 122 167 211 209 190 170 152 123 108 99 84 94 131 137 158 192 228 256 256 314 2 140 261 352 324 276 267 269 272 276 285 274 266 265 266 265 262 261 260 258 256 255
196 199 197 196 192 190 187 183 183 181 178 181 180 177 183 181 180 183 172 166 191 183 77 179 184 199 20 165 172 170 163 155 173 181 179 176 173 175 171 151 139 147 212 112 108 113 157 213 225 191 143 111 91 88 94 89 84 82 114 132 157 214 236 288 299 333 8 58 267 356 344 280 269 269 267 268 265 263 265 262 263 265 264 263 261 260 261 261
203 207 204 200 193 189 184 180 180 179 180 183 181 179 183 184 188 186 170 149 174 184 224 179 185 195 168 163 174 171 164 152 167 180 179 176 173 175 165 146 130 139 155 171 151 151 182 250 227 160 135 113 87 68 90 84 79 87 108 134 183 240 170 229 278 331 6 68 255 334 320 285 284 292 280 269 260 265 269 265 263 262 262 264 264 263 264 263
205 210 210 205 194 187 182 179 177 178 182 183 182 182 182 183 185 175 162 101 127 176 200 178 185 195 184 167 177 178 171 163 169 177 179 178 171 165 165 149 124 136 177 184 159 161 203 277 162 140 131 125 119 105 116 111 77 49 144 144 164 198 182 199 236 350 0 26 44 23 328 296 310 321 293 295 296 276 274 274 269 261 259 265 267 265 262 262
207 212 211 203 195 186 179 178 177 177 181 182 182 184 182 180 175 166 153 62 106 171 180 181 186 197 196 186 181 178 170 167 171 176 179 180 171 157 150 147 138 169 189 148 136 172 233 280 134 131 109 120 127 160 179 149 138 265 215 179 173 172 164 143 93 75 38 2 2 28 350 288 317 317 270 306 343 302 296 296 278 271 272 273 272 270 266 263
211 215 211 201 192 181 175 179 178 177 180 181 182 182 181 178 166 163 150 46 223 210 147 180 184 191 195 191 174 163 158 186 181 178 178 180 177 161 142 140 106 167 171 135 131 178 220 89 112 125 125 125 129 178 201 152 132 209 233 178 151 135 129 128 122 101 102 225 334 48 132 260 315 309 268 309 333 305 306 302 287 295 300 291 284 280 275 270
210 215 212 199 189 178 175 180 178 176 179 182 180 176 178 173 162 162 136 34 246 176 138 173 178 183 188 177 168 159 154 177 164 176 178 177 182 169 159 170 85 137 166 131 148 235 128 103 77 99 111 117 139 192 206 147 132 207 232 130 123 122 133 141 116 100 191 222 336 18 111 216 297 277 275 328 328 303 306 301 305 320 319 309 302 290 277 269
205 215 213 198 188 179 176 180 180 178 179 180 177 172 171 167 161 158 118 61 207 141 138 176 172 178 178 168 171 167 141 153 145 177 180 174 178 167 166 191 146 141 155 129 179 260 98 149 168 137 114 135 175 219 190 140 122 236 201 118 123 124 125 124 98 92 32 16 311 319 56 176 268 275 306 352 321 290 295 290 304 327 342 5 24 31 70 140
201 213 213 199 186 177 179 185 182 178 174 175 174 170 165 161 157 135 87 170 166 107 141 164 163 175 167 161 174 163 132 150 132 164 171 169 175 160 135 170 140 114 61 91 163 228 48 172 189 145 135 179 191 324 164 135 119 176 147 98 83 77 81 83 87 101 53 38 245 270 2 188 265 285 314 0 285 261 273 280 287 321 14 48 59 69 80 92
204 213 213 199 181 174 182 184 178 174 169 170 171 165 158 155 147 119 158 210 151 99 133 154 166 171 155 147 170 108 121 123 111 138 151 159 162 134 109 129 122 105 44 36 93 225 324 65 121 107 138 161 132 67 48 77 129 139 120 76 63 37 35 49 52 86 66 332 250 258 315 53 269 283 262 206 231 232 233 282 307 348 33 50 56 64 74 84
206 210 209 195 178 172 180 178 173 169 165 165 165 159 151 143 113 138 187 198 118 104 111 147 170 156 157 162 170 168 97 40 131 139 143 145 141 125 114 122 100 81 38 29 51 322 357 69 86 66 128 128 107 64 41 59 104 114 95 88 82 3 9 24 358 42 92 256 259 274 301 148 216 265 261 245 264 246 195 171 297 344 10 26 45 56 65 82
197 198 194 185 175 171 177 174 168 162 161 162 161 158 146 117 199 191 187 152 143 183 170 175 199 167 167 165 150 156 120 83 168 152 145 141 151 160 150 171 156 99 180 192 164 336 24 105 292 34 160 162 118 76 41 10 30 73 98 104 95 6 9 0 315 348 210 240 271 295 277 197 230 251 267 271 270 249 226 234 259 300 338 354 23 46 59 83
181 180 177 177 175 171 170 169 165 160 159 159 159 154 126 115 203 202 193 177 189 201 149 146 155 157 161 154 152 162 116 135 191 157 134 135 157 201 251 201 152 121 186 180 135 125 265 305 311 96 216 214 156 123 135 252 316 125 135 130 130 120 96 255 267 288 259 256 292 286 269 262 265 265 253 249 253 255 260 270 268 277 311 333 4 42 64 86
172 171 171 175 175 169 166 167 165 162 159 158 157 144 118 183 201 180 176 203 233 45 85 117 115 132 154 156 179 173 118 156 181 131 106 126 150 199 228 218 170 101 110 146 151 167 182 269 225 164 192 184 172 168 156 142 135 173 160 130 144 155 153 201 218 206 237 271 302 293 267 191 208 272 243 243 271 277 268 264 251 263 302 331 9 54 82 95
164 169 170 174 175 168 165 168 168 165 163 159 152 148 177 197 209 170 172 189 174 74 53 87 117 136 161 38 184 189 144 175 175 126 141 165 174 192 195 201 193 135 131 160 202 174 171 243 255 305 203 153 162 203 142 111 106 235 122 108 160 184 140 129 179 175 169 280 305 272 240 213 213 279 280 274 291 288 269 252 239 248 286 304 10 79 99 101
161 168 171 176 176 168 166 171 170 168 168 161 146 185 197 202 203 180 166 149 145 132 104 84 95 136 167 44 210 223 256 115 158 147 176 192 202 196 192 199 190 180 168 160 165 166 163 255 312 356 27 94 124 188 122 109 166 166 121 170 215 169 114 110 189 61 78 202 271 233 243 290 315 293 304 328 305 303 297 254 230 237 260 244 153 102 103 100
168 173 177 182 178 169 168 172 171 172 173 166 174 197 198 159 172 166 139 127 138 138 127 137 166 155 170 172 191 203 193 123 156 169 179 188 231 197 195 214 189 189 198 156 161 202 156 148 329 35 86 6 27 98 66 42 102 123 174 204 194 117 95 107 159 12 41 236 277 275 233 283 312 271 317 5 254 278 288 266 203 176 151 143 133 112 102 99
174 172 176 185 181 170 168 171 173 174 172 171 206 209 186 121 185 160 140 135 135 137 138 161 170 150 171 181 186 186 180 168 172 180 173 185 240 199 180 200 194 190 197 167 147 214 137 129 318 25 127 302 358 98 89 22 47 113 172 165 119 135 152 92 137 162 137 230 279 301 272 259 203 224 299 279 204 231 251 265 120 127 123 126 124 112 105 102
171 166 168 183 179 168 167 173 173 171 167 183 212 216 185 133 220 171 155 145 132 134 156 175 163 112 172 174 167 176 187 181 171 178 179 185 233 205 177 188 196 188 190 169 156 202 130 134 240 322 272 290 20 120 185 202 29 56 105 112 84 130 160 161 154 163 178 194 254 310 325 265 228 213 220 223 217 211 195 175 185 143 128 129 123 111 107 102
157 155 154 178 180 175 172 170 167 168 180 208 200 202 0 134 174 166 160 151 125 119 165 183 161 138 162 164 150 167 183 179 171 183 203 188 210 235 194 189 171 170 175 145 129 168 118 142 188 323 332 212 175 221 192 172 146 97 116 158 180 73 112 164 116 116 143 159 184 268 300 270 252 208 200 222 227 199 176 170 179 157 138 134 124 111 105 96
139 137 118 158 176 180 172 164 166 175 195 228 148 149 257 146 133 154 159 141 89 71 127 148 144 148 154 152 165 168 152 150 175 188 214 202 205 231 208 190 159 147 149 118 139 172 143 155 162 132 277 196 211 261 211 178 170 160 171 183 178 151 123 153 247 231 126 145 168 179 266 270 257 209 205 227 229 211 199 177 163 156 145 136 126 113 100 86
124 110 125 142 167 177 167 160 178 171 153 175 143 132 145 119 122 154 152 118 87 65 85 104 112 145 158 158 158 158 153 156 184 190 208 217 208 209 207 184 158 152 154 140 157 163 114 110 119 142 214 209 240 296 241 214 156 140 193 194 170 165 141 154 210 220 126 131 142 122 261 272 263 229 225 242 249 217 189 168 154 152 146 137 126 111 90 78
136 59 144 157 168 172 167 160 214 159 128 178 138 87 95 109 108 141 156 135 92 74 80 108 140 154 168 163 144 160 170 169 189 197 208 224 213 208 193 172 159 156 157 149 153 149 124 115 119 76 301 310 331 344 2 20 73 147 234 191 164 186 153 148 184 171 147 182 144 93 274 269 271 267 260 263 260 174 162 157 150 150 147 136 122 99 82 76
153 89 190 185 174 170 171 197 200 181 160 119 111 77 79 91 104 136 166 188 147 125 125 140 174 154 156 148 138 169 185 179 200 208 202 205 210 207 181 173 167 164 171 182 178 174 180 160 130 124 21 355 344 342 331 317 226 201 225 192 172 151 102 99 120 108 149 209 164 146 234 254 272 307 1 342 236 158 157 155 151 151 148 133 110 92 83 82
146 119 255 223 197 185 187 353 147 159 132 119 127 139 118 58 39 144 144 151 149 143 141 154 150 116 112 130 110 156 188 175 176 197 192 212 228 220 176 183 182 179 189 191 167 164 177 186 150 157 175 194 206 213 222 220 192 197 205 176 174 150 140 153 127 116 220 227 161 169 230 252 281 337 57 76 182 167 165 166 163 158 150 135 112 99 101 104
150 144 159 193 205 211 214 158 117 105 143 149 149 164 149 115 280 167 129 136 153 120 96 91 139 104 94 150 128 158 200 195 77 163 188 203 225 316 166 190 194 192 184 160 159 153 140 213 188 191 203 205 203 202 176 126 141 191 180 159 167 170 170 157 113 168 208 174 164 218 231 235 250 258 178 194 197 184 182 189 188 175 155 143 125 116 122 124
149 180 165 140 178 199 199 180 165 149 185 174 161 171 166 143 102 172 163 187 189 161 91 37 145 148 163 169 154 174 199 189 107 162 182 181 193 345 38 143 189 195 166 150 163 149 90 214 204 205 222 222 183 178 177 137 161 189 173 164 177 179 174 166 189 215 188 118 233 235 209 223 235 208 206 217 205 204 210 203 195 180 158 160 141 132 139 129
147 161 164 156 174 195 203 186 171 162 180 180 154 160 169 170 172 180 188 276 187 177 155 18 231 183 169 167 158 161 174 176 197 199 164 154 150 77 44 40 115 183 154 144 169 145 120 209 206 190 227 240 159 160 191 165 175 188 175 179 182 174 179 187 210 223 184 173 240 225 167 215 231 191 200 213 197 202 209 202 193 178 179 197 159 145 178 286
147 99 167 168 163 152 167 163 159 157 163 165 165 161 171 183 188 173 134 99 224 231 177 183 224 189 164 160 141 155 170 177 208 208 156 135 147 122 113 72 72 183 148 127 171 164 150 212 197 166 221 246 200 170 193 176 179 189 183 189 183 178 189 196 210 223 208 210 240 220 173 227 232 185 203 215 202 204 205 197 193 190 203 207 170 177 216 275
163 154 159 153 117 68 101 155 157 159 163 167 185 191 172 187 190 177 153 150 168 224 188 182 199 176 160 144 128 166 191 146 161 202 177 157 175 179 179 180 165 162 159 150 172 183 181 220 173 140 202 254 211 173 195 187 183 199 199 196 188 187 199 206 215 222 214 222 246 243 231 256 238 172 201 217 203 201 200 196 198 198 202 201 186 189 206 257
190 159 122 125 132 103 90 163 159 160 170 178 186 169 168 198 191 167 172 175 159 170 177 172 165 136 135 161 170 207 200 126 98 156 159 147 157 167 180 178 157 145 164 173 155 154 179 209 75 113 185 253 222 175 183 143 111 234 239 204 195 197 206 213 217 214 200 213 234 238 244 258 225 164 192 209 185 188 205 210 209 201 198 199 196 191 188 193
204 193 154 115 70 190 158 53 165 178 190 189 183 166 164 191 181 147 159 246 180 178 177 168 159 135 136 193 212 208 170 122 91 113 127 105 101 109 100 133 153 154 160 159 129 142 163 159 130 148 185 257 302 151 143 95 83 256 244 210 200 203 209 216 227 227 214 206 211 220 233 245 200 153 168 183 177 195 212 216 215 211 202 197 194 187 179 185